USGS - science for a changing world

Kansas Water Science Center

Jump to content

Jump back to navigation

Current Streamflow Conditions

Welcome to the U.S. Geological Survey (USGS) Web page for the water resources of Kansas. Here you'll find information on Kansas's rivers and streams. You'll also find information about groundwater, water quality, and many other topics. The USGS operates the most extensive satellite network of stream-gaging stations in the state, many of which form the backbone of flood-warning systems.

The Kansas Water Science Center provides current ("real-time") stream stage in Kansas and streamflow, water-quality, and groundwater levels for over 200 sites.
The USGS provides National ("real-time") stream stage and streamflow, water-quality, and groundwater levels for over 7000 sites.

Of Current Interest

Spatiotemporal variability of inorganic nutrients during wastewater effluent dominated streamflow conditions in Indian Creek, Johnson County, Kansas, 2012-15.

Cyanobacterial harmful algal blooms and U.S. Geological Survey science capabilities.

Elucidation of taste- and odor-producing bacteria and toxigenic cyanobacteria in a Midwestern drinking water supply reservoir by shotgun metagenomics analysis.

Challenges for mapping cyanotoxin patterns from remote sensing of cyanobacteria.

Scientific Investigations Report: Sediment oxygen demand in eastern Kansas streams, 2014 and 2015

USGS WaterAlert Service Turn Around Don't Drown

Now you can receive instant, customized updates about water conditions by subscribing to WaterAlert, a new service from the U.S. Geological Survey. WaterAlert allows you to receive daily or hourly updates about current conditions in rivers, lakes and groundwater when they match conditions of concern to you.

Kansas Earthquakes - Last 30 days

  1. 2.6 23km NE of Osborne, Kansas 2016-12-04 02:54:13 CST
  2. 2.2 11km W of Belle Plaine, Kansas 2016-12-02 02:52:49 CST
  3. 2.5 9km W of Belle Plaine, Kansas 2016-11-28 19:32:02 CST
  4. 1.69 16km S of Conway Springs, Kansas 2016-11-26 00:21:06 CST
  5. 2.8 16km S of Conway Springs, Kansas 2016-11-25 20:57:15 CST
  6. 1.82 16km S of Conway Springs, Kansas 2016-11-25 20:53:55 CST
  7. 1.66 13km ESE of Harper, Kansas 2016-11-24 23:14:20 CST
  8. 2.41 13km ESE of Harper, Kansas 2016-11-24 20:15:16 CST
  9. 2.5 24km S of Anthony, Kansas 2016-11-16 16:41:55 CST
  10. 2.7 23km SE of Smith Center, Kansas 2016-11-16 15:45:11 CST
  11. 3.4 26km SE of Smith Center, Kansas 2016-11-16 11:58:48 CST
  12. 1.58 4km SE of Caldwell, Kansas 2016-11-16 04:35:33 CST
  13. 2.26 4km ESE of Caldwell, Kansas 2016-11-14 10:27:24 CST
  14. 1.65 16km SSE of Anthony, Kansas 2016-11-13 22:39:00 CST
  15. 2.15 7km ESE of Anthony, Kansas 2016-11-13 05:35:39 CST
  16. 1.62 7km ESE of Anthony, Kansas 2016-11-13 05:30:31 CST
  17. 1.51 14km ESE of Harper, Kansas 2016-11-13 03:00:14 CST
  18. 2.09 7km ESE of Anthony, Kansas 2016-11-12 15:38:19 CST
  19. 2.27 7km ESE of Anthony, Kansas 2016-11-12 15:37:41 CST
  20. 1.65 18km E of Anthony, Kansas 2016-11-11 06:00:05 CST
  21. 3 17km NW of Medford, Oklahoma 2016-11-11 05:12:36 CST

Highlighted Publications

The Kansas Water Science Center produces publications about water resources.   Search our publications

07156900: Flow=18cfs,Stage=2.19ft,Floodstage=5ft,2016-12-11 00:00,Low,Cimarron River near Forgan, OK 06887000: Flow=4030cfs,Stage=5.96ft,Floodstage=19ft,2016-12-11 00:00,>90,BIG BLUE R NR MANHATTAN, KS 06873000: Flow=47cfs,Stage=1.95ft,Floodstage=8.5ft,2016-12-11 00:15,>90,SF SOLOMON R AB WEBSTER RE, KS 06821500: Flow=0.00cfs,Stage=3.96ft,Floodstage=12ft,2016-12-10 23:30,<10,Arikaree River at Haigler, Nebr. 07144910: Flow=6.2cfs,Stage=2.55ft,Floodstage=9ft,2016-12-11 01:00,<10,SF NINNESCAH R NR PRATT, KS 07144200: Flow=88cfs,Stage=1.33ft,2016-12-11 00:00,76-90,L ARKANSAS R AT VALLEY CENTER, KS 06892350: Flow=5130cfs,Stage=6.64ft,Floodstage=26ft,2016-12-11 00:45,76-90,KANSAS R AT DESOTO, KS 06891000: Flow=5110cfs,Stage=4.21ft,Floodstage=17ft,2016-12-11 00:30,76-90,KANSAS R AT LECOMPTON, KS 06889000: Flow=5290cfs,Stage=7.45ft,Floodstage=26ft,2016-12-11 00:30,76-90,KANSAS R AT TOPEKA, KS 06888000: Flow=33cfs,Stage=4.07ft,2016-12-11 00:45,76-90,VERMILLION C NR WAMEGO, KS 06878000: Flow=33cfs,Stage=4.74ft,Floodstage=19ft,2016-12-11 00:45,76-90,CHAPMAN C NR CHAPMAN, KS 06869500: Flow=135cfs,Stage=7.06ft,Floodstage=25ft,2016-12-11 00:30,76-90,SALINE R AT TESCOTT, KS 06868200: Flow=105cfs,Stage=4.63ft,2016-12-11 00:45,76-90,SALINE R AT WILSON DAM, KS 07188000: Flow=204cfs,Stage=5.09ft,Floodstage=20ft,2016-12-11 00:00,10-24,Spring River near Quapaw, OK 07186000: Flow=82cfs,Stage=1.21ft,Floodstage=19ft,2016-12-11 00:30,10-24,Spring River near Waco, MO 07170500: Flow=49cfs,Stage=1.81ft,Floodstage=30ft,2016-12-11 01:00,10-24,VERDIGRIS R AT INDEPENDENCE, KS 07149000: Flow=64cfs,Stage=0.58ft,Floodstage=10ft,2016-12-11 00:30,10-24,MEDICINE LODGE R NR KIOWA, KS 07142300: Flow=0.17cfs,Stage=3.12ft,Floodstage=9ft,2016-12-11 00:00,10-24,RATTLESNAKE C NR MACKSVILLE, KS 07139000: Flow=0.00cfs,Stage=5.23ft,Floodstage=10ft,2016-12-11 00:30,10-24,ARKANSAS R AT GARDEN CITY, KS 06915000: Flow=3.3cfs,Stage=1.95ft,2016-12-11 00:30,10-24,BIG BULL C NR HILLSDALE, KS 06891500: Flow=3.3cfs,Stage=4.14ft,Floodstage=23ft,2016-12-11 00:45,10-24,WAKARUSA R NR LAWRENCE, KS 06861000: Flow=0.09cfs,Stage=0.51ft,Floodstage=7ft,2016-12-11 00:30,10-24,SMOKY HILL R NR ARNOLD, KS 06853500: Flow=79cfs,Stage=1.81ft,Floodstage=11ft,2016-12-11 00:30,10-24,REPUBLICAN R NR HARDY, NE 06827500: Flow=0.00cfs,Stage=-0.11ft,Floodstage=9ft,2016-12-10 23:30,10-24,South Fork Republican River near Benkelman, Nebr. 07185000: Flow=264cfs,Stage=2.54ft,Floodstage=15ft,2016-12-11 00:30,25-75,Neosho River near Commerce, OK 07184000: Flow=6.1cfs,Stage=1.13ft,Floodstage=12ft,2016-12-11 00:45,25-75,LIGHTNING C NR MCCUNE, KS 07183500: Flow=183cfs,Stage=7.26ft,Floodstage=21ft,2016-12-11 00:00,25-75,NEOSHO R NR PARSONS, KS 07183000: Flow=90cfs,Stage=6.90ft,Floodstage=15ft,2016-12-11 00:00,25-75,NEOSHO R NR IOLA, KS 07182510: Flow=31cfs,Stage=5.64ft,Floodstage=27ft,2016-12-11 00:15,25-75,NEOSHO R AT BURLINGTON, KS 07182250: Flow=220cfs,Stage=3.16ft,Floodstage=32ft,2016-12-11 01:00,25-75,COTTONWOOD R NR PLYMOUTH, KS 07180500: Flow=23cfs,Stage=4.36ft,2016-12-11 00:15,25-75,CEDAR C NR CEDAR POINT, KS 07180400: Flow=85cfs,Stage=3.30ft,Floodstage=22ft,2016-12-11 01:00,25-75,COTTONWOOD R NR FLORENCE, KS 07179795: Flow=1.9cfs,Stage=4.70ft,2016-12-11 00:30,25-75,N COTTONWOOD R BL MARION LK, KS 07179730: Flow=32cfs,Stage=2.94ft,Floodstage=26ft,2016-12-11 00:15,25-75,NEOSHO R NR AMERICUS, KS 07179500: Flow=3.6cfs,Stage=7.90ft,2016-12-11 01:00,25-75,NEOSHO R AT COUNCIL GROVE, KS 07172000: Flow=33cfs,Stage=1.64ft,2016-12-11 01:00,25-75,CANEY R NR ELGIN, KS 07169800: Flow=16cfs,Stage=2.62ft,2016-12-11 00:00,25-75,ELK R AT ELK FALLS, KS 07169500: Flow=26cfs,Stage=2.96ft,Floodstage=17ft,2016-12-11 01:00,25-75,FALL R AT FREDONIA, KS 07167500: Flow=8.8cfs,Stage=1.77ft,2016-12-11 00:15,25-75,OTTER C AT CLIMAX, KS 07166500: Flow=35cfs,Stage=3.35ft,Floodstage=19ft,2016-12-11 00:45,25-75,VERDIGRIS R NR ALTOONA, KS 07151500: Flow=139cfs,Stage=2.39ft,Floodstage=10ft,2016-12-11 01:00,25-75,CHIKASKIA R NR CORBIN, KS 07147800: Flow=267cfs,Stage=1.77ft,Floodstage=18ft,2016-12-11 01:00,25-75,WALNUT R AT WINFIELD, KS 07147070: Flow=54cfs,Stage=2.08ft,2016-12-11 00:30,25-75,WHITEWATER R AT TOWANDA, KS 07146500: Flow=854cfs,Stage=3.75ft,Floodstage=11ft,2016-12-11 01:00,25-75,ARKANSAS R AT ARKANSAS CITY, KS 07145700: Flow=13cfs,Stage=3.98ft,Floodstage=19ft,2016-12-11 01:00,25-75,SLATE C AT WELLINGTON, KS 07145500: Flow=232cfs,Stage=2.57ft,Floodstage=17ft,2016-12-11 01:00,25-75,NINNESCAH R NR PECK, KS 07145200: Flow=134cfs,Stage=3.76ft,Floodstage=8ft,2016-12-11 01:00,25-75,SF NINNESCAH R NR MURDOCK, KS 07144780: Flow=86cfs,Stage=6.38ft,2016-12-11 00:45,25-75,NF NINNESCAH R AB CHENEY RE, KS 07144550: Flow=456cfs,Stage=1.50ft,Floodstage=12ft,2016-12-11 01:00,25-75,ARKANSAS R AT DERBY, KS 07144300: Flow=322cfs,Stage=3.48ft,2016-12-11 00:45,25-75,ARKANSAS R AT WICHITA, KS 07143665: Flow=18cfs,Stage=0.41ft,Floodstage=22ft,2016-12-11 00:15,25-75,L ARKANSAS R AT ALTA MILLS, KS 07143330: Flow=148cfs,Stage=2.26ft,Floodstage=10ft,2016-12-11 00:30,25-75,ARKANSAS R NR HUTCHINSON, KS 07143300: Flow=9.5cfs,Stage=4.44ft,Floodstage=18ft,2016-12-11 00:30,25-75,COW C NR LYONS, KS 07141300: Flow=13cfs,Stage=1.14ft,Floodstage=12ft,2016-12-11 00:30,25-75,ARKANSAS R AT GREAT BEND, KS 07138000: Flow=130cfs,Stage=4.45ft,Floodstage=10ft,2016-12-11 00:15,25-75,ARKANSAS R AT SYRACUSE, KS 07137500: Flow=140cfs,Stage=3.11ft,Floodstage=8ft,2016-12-11 00:15,25-75,ARKANSAS R NR COOLIDGE, KS 06917500: Flow=14cfs,Stage=7.18ft,Floodstage=38ft,2016-12-11 00:30,25-75,MARMATON R NR FORT SCOTT, KS 06917000: Flow=18cfs,Stage=3.46ft,Floodstage=22ft,2016-12-11 00:15,25-75,L OSAGE R AT FULTON, KS 06916600: Flow=174cfs,Stage=4.24ft,Floodstage=27ft,2016-12-11 00:45,25-75,MARAIS DES CYGNES R NR KS-MO ST LINE, KS 06915800: Flow=121cfs,Stage=4.35ft,Floodstage=25ft,2016-12-11 00:15,25-75,MARAIS DES CYGNES R AT LA CYGNE, KS 06913500: Flow=56cfs,Stage=3.66ft,Floodstage=31ft,2016-12-11 00:30,25-75,MARAIS DES CYGNES R NR OTTAWA, KS 06913000: Flow=61cfs,Stage=1.41ft,Floodstage=20ft,2016-12-11 00:30,25-75,MARAIS DES CYGNES R NR POMONA, KS 06912500: Flow=19cfs,Stage=2.84ft,2016-12-11 00:45,25-75,HUNDRED AND TEN MILE C NR QUENEMO, KS 06911900: Flow=5.1cfs,Stage=8.10ft,Floodstage=19ft,2016-12-11 00:00,25-75,DRAGOON C NR BURLINGAME, KS 06911000: Flow=23cfs,Stage=2.27ft,2016-12-11 00:45,25-75,MARAIS DES CYGNES R AT MELVERN, KS 06910800: Flow=16cfs,Stage=2.43ft,Floodstage=19ft,2016-12-11 00:45,25-75,MARAIS DES CYGNES R NR READING, KS 06893500: Flow=33cfs,Stage=4.21ft,Floodstage=34ft,2016-12-11 00:45,25-75,Blue River at Kansas City, MO 06893300: Flow=15cfs,Stage=5.67ft,Floodstage=14ft,2016-12-11 00:15,25-75,INDIAN C AT OVERLAND PARK, KS 06893080: Flow=3.4cfs,Stage=3.67ft,Floodstage=16ft,2016-12-11 00:45,25-75,BLUE R NR STANLEY, KS 06893000: Flow=41700cfs,Stage=9.66ft,Floodstage=32ft,2016-12-11 00:30,25-75,Missouri River at Kansas City, MO 06892000: Flow=41cfs,Stage=2.59ft,Floodstage=23ft,2016-12-11 00:30,25-75,STRANGER C NR TONGANOXIE, KS 06889500: Flow=40cfs,Stage=0.39ft,Floodstage=29ft,2016-12-11 01:00,25-75,SOLDIER C NR TOPEKA, KS 06888500: Flow=27cfs,Stage=2.52ft,Floodstage=21ft,2016-12-11 00:45,25-75,MILL C NR PAXICO, KS 06888350: Flow=5130cfs,Stage=8.17ft,Floodstage=20ft,2016-12-11 00:30,25-75,KANSAS R NR BELVUE, KS 06885500: Flow=45cfs,Stage=3.47ft,Floodstage=19ft,2016-12-11 00:30,25-75,BLACK VERMILLION R NR FRANKFORT, KS 06884200: Flow=20cfs,Stage=1.84ft,Floodstage=18ft,2016-12-11 00:45,25-75,MILL C AT WASHINGTON, KS 06879100: Flow=751cfs,Stage=5.98ft,Floodstage=21ft,2016-12-11 00:30,25-75,KANSAS R AT FORT RILEY, KS 06877600: Flow=573cfs,Stage=7.21ft,Floodstage=26ft,2016-12-11 00:45,25-75,SMOKY HILL R AT ENTERPRISE, KS 06876700: Flow=16cfs,Stage=4.75ft,Floodstage=18ft,2016-12-11 00:45,25-75,SALT C NR ADA, KS 06873460: Flow=8.0cfs,Stage=4.65ft,Floodstage=12ft,2016-12-11 00:30,25-75,SF SOLOMON R AT WOODSTON, KS 06866900: Flow=1.8cfs,Stage=2.46ft,Floodstage=13ft,2016-12-11 00:00,25-75,SALINE R NR WAKEENEY, KS 06865500: Flow=55cfs,Stage=3.25ft,2016-12-11 00:30,25-75,SMOKY HILL R NR LANGLEY, KS 06857100: Flow=119cfs,Stage=5.03ft,2016-12-11 00:30,25-75,REPUBLICAN R AT JUNCTION CITY, KS 06856600: Flow=179cfs,Stage=6.75ft,Floodstage=15ft,2016-12-11 00:30,25-75,REPUBLICAN R AT CLAY CENTER, KS 06856000: Flow=139cfs,Stage=4.91ft,Floodstage=15ft,2016-12-11 00:30,25-75,REPUBLICAN R AT CONCORDIA, KS 06818000: Flow=33000cfs,Stage=5.94ft,Floodstage=17ft,2016-12-11 00:30,25-75,Missouri River at St. Joseph, MO 06813500: Flow=31400cfs,Stage=6.51ft,Floodstage=17ft,2016-12-11 00:30,25-75,Missouri River at Rulo, NE 385520094420000: Flow=15cfs,2013-07-17 23:45,Not ranked,INDIAN C AT COLLEGE BLVD, JOHNSON CO, KS 375350097262800: Stage=5.16ft,2016-12-11 00:00,Not ranked,L ARKANSAS R UPSTREAM OF ASR FAC NR SEDGWICK, KS 07187600: Flow=261cfs,Stage=2.97ft,Floodstage=14ft,2016-12-11 00:30,Not ranked,SPRING R NR BAXTER SPRINGS, KS 07186055: Flow=21cfs,Stage=5.62ft,2016-12-11 00:45,Not ranked,COW C NR SCAMMON, KS 07185090: Flow=3.5cfs,Stage=8.44ft,2016-12-11 00:15,Not ranked,Tar Creek near Commerce, OK 07184500: Flow=17cfs,Stage=5.84ft,2016-12-11 00:00,Not ranked,LABETTE C NR OSWEGO, KS 07183300: Stage=11.45ft,Floodstage=29ft,2016-12-11 00:15,Not ranked,NEOSHO R NR ERIE, KS 07182395: Stage=-2.07ft,2016-12-11 01:00,Not ranked,NEOSHO R AT HARTFORD, KS 07182390: Flow=307cfs,Stage=1.46ft,Floodstage=22ft,2016-12-11 00:30,Not ranked,NEOSHO R AT NEOSHO RAPIDS, KS 07182260: Flow=202cfs,Stage=2.19ft,Floodstage=20ft,2016-12-11 00:30,Not ranked,COTTONWOOD R AT EMPORIA, KS 07182200: Flow=21cfs,Stage=6.69ft,2016-12-11 00:30,Not ranked,SF COTTONWOOD R NR BAZAAR, KS 07180200: Stage=5.21ft,2016-12-11 00:30,Not ranked,COTTONWOOD R AT MARION, KS 07179785: Flow=3.3cfs,Stage=9.90ft,2016-12-11 00:30,Not ranked,NF COTTONWOOD R NR DURHAM, KS 07179750: Flow=37cfs,Stage=3.65ft,2016-12-11 00:30,Not ranked,NEOSHO R AT BURLINGAME RD NR EMPORIA, KS 07179710: Stage=11.13ft,2016-12-11 00:00,Not ranked,NEOSHO R NR DUNLAP, KS 07179700: Flow=11cfs,Stage=9.34ft,2016-12-11 00:15,Not ranked,ROCK C NR DUNLAP, KS 07179300: Not ranked,Ice affected,NEOSHO R NR PARKERVILLE, KS 07170990: Flow=90cfs,Stage=2.87ft,2016-12-11 00:45,Not ranked,VERDIGRIS R AT COFFEYVILLE, KS 07170700: Stage=2.81ft,2016-12-11 00:00,Not ranked,BIG HILL C NR CHERRYVALE, KS 07165750: Flow=23cfs,Stage=7.01ft,2016-12-11 01:00,Not ranked,VERDIGRIS R NR VIRGIL, KS 07157940: Flow=5.3cfs,Stage=5.50ft,2016-12-11 01:00,Not ranked,BLUFF C NR BUTTERMILK, KS 07157740: Flow=1.5cfs,Stage=7.04ft,2016-12-11 00:30,Not ranked,CIMARRON R NR BUTTERMILK, KS 07157500: Stage=2.44ft,2016-12-11 00:30:00,Floodstage=6.5ft,Not ranked,Ice affected,CROOKED C NR ENGLEWOOD, KS 07148111: Flow=48cfs,Stage=4.49ft,2016-12-11 00:30,Not ranked,GROUSE C NR SILVERDALE, KS 07147900: Stage=2.75ft,Floodstage=18ft,2016-12-11 00:15,Not ranked,WALNUT R AT ARKANSAS CITY, KS 07146800: Flow=12cfs,Stage=5.75ft,Floodstage=21ft,2016-12-11 00:00,Not ranked,WB WALNUT R NR EL DORADO, KS 07145600: Flow=807cfs,Stage=7.75ft,Floodstage=17ft,2016-12-11 00:45,Not ranked,ARKANSAS R ON HWY 160 AT OXFORD, KS 07144795: Flow=0.43cfs,Stage=1.23ft,2015-11-12 10:00,Not ranked,NF NINNESCAH R AT CHENEY DAM, KS 07144790: Stage=1421.79ft,2016-12-11 00:00,Not ranked,CHENEY RE NR CHENEY, KS 07144570: Flow=452cfs,Stage=6.49ft,Floodstage=16.5ft,2016-12-11 00:15,Not ranked,ARKANSAS R AT MULVANE, KS 07144490: Flow=5.5cfs,Stage=7.38ft,2016-12-11 00:15,Not ranked,COWSKIN C AT KELLOGG ST, WICHITA, KS 07144486: Flow=0.23cfs,Stage=5.01ft,2016-12-11 01:00,Not ranked,CALFSKIN C AT 119TH ST, WICHITA, KS 07144480: Flow=4.7cfs,Stage=7.44ft,Floodstage=18ft,2016-12-11 00:30,Not ranked,COWSKIN C AT 119TH ST AT WICHITA, KS 07144470: Stage=10.99ft,2016-12-11 00:15,Not ranked,COWSKIN C AT 29TH ST NORTH OF WICHITA, KS 07144301: Flow=0.00cfs,Stage=6.49ft,2016-12-11 00:45,Not ranked,FLOODWAY AT ARKANSAS R AT WICHITA, KS 07144201: Flow=0.00cfs,Stage=1.98ft,2016-12-11 00:00,Not ranked,FLOODWAY AT L ARKANSAS R AT VALLEY CENTER, KS 07144100: Flow=76cfs,Stage=3.23ft,Floodstage=22ft,2016-12-11 00:15,Not ranked,L ARKANSAS R NR SEDGWICK, KS 07144050: Stage=-0.63ft,2016-12-11 00:15:00,Floodstage=19ft,Not ranked,Ice affected,EMMA C AT SEDGWICK, KS 07143672: Flow=33cfs,Stage=6.01ft,Floodstage=25ft,2016-12-11 00:30,Not ranked,L ARKANSAS R AT HWY 50 NR HALSTEAD, KS 07143375: Flow=212cfs,Stage=5.27ft,2016-12-11 00:15,Not ranked,ARKANSAS R NR MAIZE, KS 07143310: Stage=1.93ft,Floodstage=9.5ft,2016-12-11 00:15,Not ranked,COW C NR HUTCHINSON, KS 07142680: Flow=90cfs,Stage=8.72ft,2016-12-11 00:00,Not ranked,ARKANSAS R NR NICKERSON, KS 07142575: Stage=11.77ft,2016-12-11 00:30:00,Floodstage=17ft,Not ranked,Ice affected,RATTLESNAKE C NR ZENITH, KS 07142019: Flow=1.3cfs,Stage=2.12ft,2016-12-11 01:00,Not ranked,CHEYENNE BOTTOMS DV NR GREAT BEND, KS 07141900: Flow=0.00cfs,Stage=2.18ft,Floodstage=24ft,2016-12-11 00:45,Not ranked,WALNUT C AT ALBERT, KS 07141780: Stage=6.93ft,2016-12-11 00:15:00,Floodstage=29ft,Not ranked,Ice affected,WALNUT C AT NEKOMA, KS 07141220: Flow=0.00cfs,Stage=3.73ft,2016-12-11 01:00,Not ranked,ARKANSAS R NR LARNED, KS 07141200: Flow=0.00cfs,Stage=5.79ft,Floodstage=31ft,2016-12-11 00:30,Not ranked,PAWNEE R AT ROZEL, KS 07141000: Not ranked,Ice affected,BUCKNER C AT HANSTON, KS 07140900: Flow=2.6cfs,Stage=2.73ft,2016-12-11 00:15,Not ranked,BUCKNER C NR JETMORE, KS 07140890: Flow=1.7cfs,Stage=3.04ft,2016-12-11 00:45,Not ranked,BUCKNER C BL HORSETHIEF RE NR JETMORE, KS 07140880: Flow=2.7cfs,Stage=4.10ft,2016-12-11 00:15,Not ranked,BUCKNER C AB HORSETHIEF RE NR JETMORE, KS 07140850: Flow=0.00cfs,Stage=2.26ft,Floodstage=30ft,2016-12-09 10:00,Not ranked,PAWNEE R NR BURDETT, KS 07139500: Stage=6.00ft,Floodstage=11ft,2016-12-11 00:00,Not ranked,ARKANSAS R AT DODGE CITY, KS 07138075: Flow=5.0cfs,2016-11-19 00:15,Stage=1.46ft,2016-12-11 00:00:00,Not ranked,FARMERS DITCH NR DEERFIELD, KS 07138070: Stage=7.11ft,2016-12-11 00:45:00,Floodstage=14ft,Not ranked,Temporarily unavailable,ARKANSAS R AT DEERFIELD, KS 07138064: Flow=0.00cfs,Stage=1.95ft,2016-12-11 00:15,Not ranked,SOUTHSIDE DITCH RETURN NR DEERFIELD, KS 07138063: Flow=3.0cfs,2016-10-08 10:00,Stage=1.25ft,2016-12-11 00:00:00,Not ranked,SOUTHSIDE DITCH NR LAKIN, KS 07138050: Stage=3.87ft,2016-12-11 00:00:00,Not ranked,Equipment malfunction,AMAZON GREAT EASTERN DITCH NR LAKIN, KS 07138020: Flow=115cfs,Stage=6.11ft,2016-12-11 00:45,Not ranked,ARKANSAS R AT KENDALL, KS 07137010: Flow=0.00cfs,Stage=1.96ft,2016-12-11 00:45,Not ranked,FRONTIER DITCH RETURN NR COOLIDGE, KS 07137000: Flow=0.00cfs,Stage=9.78ft,2016-12-11 00:45,Not ranked,FRONTIER DITCH NR COOLIDGE, KS 07134990: Not ranked,Seasonal site,WILD HORSE CREEK ABOVE HOLLY, CO 06917630: Flow=0.06cfs,Stage=1.68ft,2016-12-11 00:15,Not ranked,East Drywood Creek at Prairie State Park 06917560: Flow=19cfs,Stage=2.20ft,Floodstage=25ft,2016-12-11 00:15,Not ranked,Marmaton River near Richards, MO 06917380: Flow=194cfs,2008-11-12 23:45,Not ranked,MARMATON R NR MARMATON, KS 06917240: Flow=3.8cfs,Stage=0.04ft,2016-12-11 01:00,Not ranked,MARMATON R NR UNIONTOWN, KS 06914995: Stage=917.19ft,2016-12-11 00:30,Not ranked,HILLSDALE LK NR HILLSDALE, KS 06914990: Flow=0.90cfs,Stage=3.19ft,2016-12-11 00:30,Not ranked,L BULL C NR SPRING HILL, KS 06914950: Flow=1.4cfs,Stage=2.22ft,2016-12-11 01:00,Not ranked,BIG BULL C NR EDGERTON, KS 06914500: Flow=26cfs,Stage=5.76ft,Floodstage=23ft,2016-12-11 00:30,Not ranked,POTTAWATOMIE C AT LANE, KS 06914100: Flow=9.5cfs,Stage=3.14ft,Floodstage=23ft,2016-12-11 00:45,Not ranked,POTTAWATOMIE C NR SCIPIO, KS 06912490: Stage=975.97ft,2016-12-11 00:45,Not ranked,POMONA LK NR QUENEMO, KS 06911490: Stage=0.77ft,2016-12-11 00:30:00,Floodstage=10ft,Not ranked,Ice affected,SALT C AT LYNDON, KS 06910997: Stage=1036.85ft,2016-12-11 00:30,Not ranked,MELVERN LK NR MELVERN, KS 06893562: 2016-10-30 23:45,Not ranked,Brush Creek at Rockhill Road in Kansas City, MO 06893557: Flow=0.13cfs,Stage=35.61ft,Floodstage=47ft,2016-12-11 00:15,Not ranked,Brush Creek at Ward Parkway in Kansas City, MO 06893400: 2016-10-31 23:45,Not ranked,Indian Creek at 103rd St in Kansas City, MO 06893390: Flow=30cfs,Stage=10.25ft,Floodstage=20ft,2016-12-11 00:30,Not ranked,INDIAN C AT STATE LINE RD, LEAWOOD, KS 06893350: Flow=1.7cfs,Stage=1.84ft,2016-12-11 00:15,Not ranked,TOMAHAWK C NR OVERLAND PARK, KS 06893150: Not ranked,Temporarily unavailable,Blue River at Blue Ridge Blvd Ext in KC, MO 06893100: Flow=5.1cfs,Stage=5.08ft,2016-12-11 00:30,Not ranked,BLUE R AT KENNETH RD, OVERLAND PARK, KS 06892950: Stage=10.81ft,Floodstage=33ft,2016-12-11 00:45,Not ranked,KANSAS R AT KANSAS CITY, KS 06892518: Flow=6060cfs,Stage=11.15ft,2016-12-11 00:45,Not ranked,KANSAS R NR LAKE QUIVIRA, KS 06892513: Flow=8.5cfs,Stage=48.59ft,2016-12-11 00:30,Not ranked,MILL C AT JOHNSON DRIVE, SHAWNEE, KS 06892495: Flow=11cfs,Stage=57.32ft,2016-12-11 00:45,Not ranked,CEDAR C NR DESOTO, KS 06892494: Stage=3.23ft,2016-12-11 01:00,Not ranked,CAMP C AT 95TH ST NR DESOTO, KS 06892493: Stage=76.74ft,2016-12-11 01:00,Not ranked,CEDAR C AT 95TH ST NR DESOTO, KS 06892360: Flow=5.0cfs,Stage=4.92ft,2016-12-11 00:30,Not ranked,KILL C AT 95TH ST NR DESOTO, KS 06891850: Stage=2.46ft,2016-12-11 00:30:00,Floodstage=17ft,Not ranked,Ice affected,STRANGER C AT EASTON, KS 06891810: Flow=199cfs,2015-06-09 23:45,Not ranked,STRANGER C NR POTTER, KS 06891478: Stage=876.80ft,2016-12-11 00:00,Not ranked,CLINTON LK NR LAWRENCE, KS 06891260: Flow=4.7cfs,Stage=3.78ft,2016-12-11 00:30,Not ranked,WAKARUSA R NR RICHLAND, KS 06891200: 2016-12-11 00:15,Not ranked,WAKARUSA R AT WAKARUSA, KS 06891080: Flow=5910cfs,2016-12-11 00:45,Stage=14.14ft,2016-12-11 00:50:00,Floodstage=18ft,Not ranked,KANSAS R AT LAWRENCE, KS 06890900: Stage=28.15ft,2016-12-08 09:30:00,Not ranked,Equipment malfunction,DELAWARE R AT PERRY, KS 06890898: Stage=893.51ft,2016-12-11 00:30,Not ranked,PERRY LK NR PERRY, KS 06890100: Stage=2.48ft,2016-12-11 00:45:00,Floodstage=27ft,Not ranked,Ice affected,DELAWARE R NR MUSCOTAH, KS 06889630: Flow=4.0cfs,Stage=4.54ft,Floodstage=24ft,2016-12-11 00:15,Not ranked,SHUNGANUNGA C AT TOPEKA, KS 06889585: Stage=4.79ft,Floodstage=15ft,2016-12-11 00:15,Not ranked,SHUNGANUNGA C AT GAGE BLVD, TOPEKA, KS 06889200: Stage=6.87ft,2016-12-11 00:30:00,Floodstage=26ft,Not ranked,Ice affected,SOLDIER C NR DELIA, KS 06888990: Flow=5400cfs,Stage=7.20ft,2016-12-11 00:30,Not ranked,KANSAS R AT TOPEKA WATER PLANT, KS 06888700: Stage=7.39ft,Floodstage=25ft,2016-12-11 00:30,Not ranked,CROSS C AT ROSSVILLE, KS 06888300: Flow=26cfs,Stage=8.81ft,Floodstage=27ft,2016-12-11 00:00,Not ranked,ROCK C NR LOUISVILLE, KS 06887500: Flow=6040cfs,Stage=6.35ft,Floodstage=19ft,2016-12-11 00:30,Not ranked,KANSAS R AT WAMEGO, KS 06886900: Stage=1077.75ft,2016-12-11 00:00,Not ranked,TUTTLE C LK NR MANHATTAN, KS 06886850: Stage=6.13ft,2016-12-11 00:45,Not ranked,MILL C NR RILEY, KS 06886500: Stage=1.16ft,Floodstage=16ft,2016-12-11 00:15,Not ranked,FANCY C AT WINKLER, KS 06884700: Stage=15.34ft,Floodstage=26ft,2016-12-11 00:15,Not ranked,BIG BLUE R AT BLUE RAPIDS, KS 06884400: Stage=3.66ft,2016-12-11 00:30:00,Floodstage=21ft,Not ranked,Ice affected,L BLUE R NR BARNES, KS 06884025: Stage=1.86ft,2016-12-11 00:00:00,Floodstage=19ft,Not ranked,Ice affected,Little Blue River at Hollenberg, KS 06882510: Stage=11.80ft,2016-12-11 00:30:00,Floodstage=35ft,Not ranked,Ice affected,BIG BLUE R AT MARYSVILLE, KS 06882000: Stage=3.75ft,2016-12-09 12:00:00,Floodstage=20ft,Not ranked,Ice affected,Big Blue River at Barneston, Nebr. 06879820: Stage=5.95ft,Floodstage=18ft,2016-12-11 01:00,Not ranked,KANSAS R AT MANHATTAN, KS 06879815: Stage=2.55ft,2016-12-11 01:00,Not ranked,WILDCAT C AT SETH CHILDS RD, MANHATTAN, KS 06879810: Flow=6.4cfs,Stage=2.64ft,Floodstage=14ft,2016-12-11 00:15,Not ranked,WILDCAT C AT SCENIC DRIVE, MANHATTAN, KS 06879805: Stage=7.25ft,2016-12-11 00:00,Not ranked,WILDCAT C AT KEATS, KS 06879650: Flow=0.00cfs,Stage=2.12ft,2016-12-11 00:45,Not ranked,KINGS C NR MANHATTAN, KS 06878600: Flow=36cfs,Stage=5.78ft,Floodstage=21ft,2016-12-11 00:15,Not ranked,LYON C NR JUNCTION CITY, KS 06876900: Stage=4.90ft,2016-12-11 00:30:00,Floodstage=24ft,Not ranked,Ice affected,SOLOMON R AT NILES, KS 06876440: Flow=291cfs,Stage=3.28ft,Floodstage=26ft,2016-12-11 00:15,Not ranked,SOLOMON R NR MINNEAPOLIS, KS 06876070: Stage=8.66ft,2016-12-11 00:15,Not ranked,SOLOMON R NR SIMPSON, KS 06876000: Stage=4.71ft,2016-12-11 00:45:00,Not ranked,Ice affected,SOLOMON R AT BELOIT, KS 06875900: Not ranked,Equipment malfunction,SOLOMON R NR GLEN ELDER, KS 06874000: Stage=4.03ft,2016-12-11 00:30:00,Floodstage=14ft,Not ranked,Ice affected,SF SOLOMON R AT OSBORNE, KS 06872500: Stage=3.92ft,2016-12-11 00:30:00,Floodstage=15ft,Not ranked,Ice affected,NF SOLOMON R AT PORTIS, KS 06871500: Stage=3.63ft,2016-12-11 00:45:00,Floodstage=9ft,Not ranked,Ice affected,BOW C NR STOCKTON, KS 06871000: Stage=3.39ft,2016-12-11 00:30:00,Floodstage=11ft,Not ranked,Ice affected,NF SOLOMON R AT GLADE, KS 06870300: Stage=19.99ft,2016-12-11 00:15:00,Not ranked,Ice affected,GYPSUM C NR GYPSUM, KS 06870200: Stage=6.16ft,Floodstage=27ft,2016-12-11 00:45,Not ranked,SMOKY HILL R AT NEW CAMBRIA, KS 06869950: Flow=3.9cfs,Stage=2.85ft,Floodstage=24ft,2016-12-11 00:00,Not ranked,MULBERRY C NR SALINA, KS 06868850: Flow=139cfs,Stage=12.45ft,Floodstage=30ft,2016-12-11 00:45,Not ranked,SALINE R AT LINCOLN, KS 06868100: Stage=1517.09ft,2016-12-11 00:30,Not ranked,WILSON LK NR WILSON, KS 06867500: Flow=3.5cfs,Stage=9.15ft,2016-12-11 00:30,Not ranked,PARADISE C NR PARADISE, KS 06867000: Stage=6.28ft,2016-12-11 00:30:00,Floodstage=18ft,Not ranked,Ice affected,SALINE R NR RUSSELL, KS 06866500: Stage=4.40ft,2016-12-11 00:45:00,Floodstage=20ft,Not ranked,Ice affected,SMOKY HILL R NR MENTOR, KS 06866000: Stage=6.78ft,2016-12-11 00:30:00,Floodstage=21ft,Not ranked,Ice affected,SMOKY HILL R AT LINDSBORG, KS 06865000: Stage=1464.80ft,2016-12-11 00:30,Not ranked,KANOPOLIS LK NR KANOPOLIS, KS 06864500: Stage=1.57ft,2016-12-11 00:30:00,Floodstage=20ft,Not ranked,Ice affected,SMOKY HILL R AT ELLSWORTH, KS 06864050: Flow=58cfs,2011-06-08 23:45,Not ranked,SMOKY HILL R NR BUNKER HILL, KS 06864000: Stage=3.49ft,2016-12-11 00:30:00,Floodstage=18ft,Not ranked,Ice affected,SMOKY HILL R NR RUSSELL, KS 06863500: Stage=5.07ft,2016-12-11 00:30:00,Floodstage=26ft,Not ranked,Ice affected,BIG C NR HAYS, KS 06863420: Not ranked,Ice affected,BIG C NR ELLIS, KS 06863000: Flow=0.00cfs,Stage=0.80ft,2016-12-11 01:00,Not ranked,SMOKY HILL R AT PFEIFER, KS 06862850: Stage=2.37ft,2016-12-11 00:00:00,Floodstage=11ft,Not ranked,Ice affected,SMOKY HILL R BL SCHOENCHEN, KS 06862700: Stage=3.47ft,2016-12-11 00:30:00,Not ranked,Ice affected,SMOKY HILL R NR SCHOENCHEN, KS 06861500: Stage=2118.75ft,2016-12-11 00:15,Not ranked,CEDAR BLUFF RE NR ELLIS, KS 06860900: Flow=0.00cfs,Stage=6.97ft,2016-12-11 00:30,Not ranked,HACKBERRY C NR TREGO CENTER, KS 06860000: Flow=0.00cfs,Stage=3.76ft,Floodstage=9ft,2016-12-10 16:30,Not ranked,SMOKY HILL R AT ELKADER, KS 06857050: Stage=1146.85ft,2016-12-11 00:30,Not ranked,MILFORD LK NR JUNCTION CITY, KS 06855850: Flow=16cfs,Stage=4.26ft,2016-12-11 00:15,Not ranked,BUFFALO C 4 MI E OF JAMESTOWN, KS 06854500: Stage=1.63ft,2016-12-11 00:15:00,Floodstage=10ft,Not ranked,Ice affected,REPUBLICAN R AT SCANDIA, KS 06854000: 2016-12-11 00:45,Not ranked,WHITE ROCK C AT LOVEWELL, KS 06853800: Stage=1.73ft,2016-12-11 00:45:00,Floodstage=16ft,Not ranked,Ice affected,WHITE ROCK C NR BURR OAK, KS 06853020: Stage=4.46ft,2016-12-11 00:30:00,Floodstage=11ft,Not ranked,Ice affected,Republican River at Guide Rock, Nebr. 06852500: Not ranked,Seasonal site,Courtland Canal at Nebraska-Kansas Stateline 06848500: Flow=0.00cfs,Stage=1.04ft,Floodstage=21ft,2016-12-11 00:30,Not ranked,PRAIRIE DOG C NR WOODRUFF, KS 06847900: Stage=3.67ft,2016-12-11 00:45:00,Floodstage=11ft,Not ranked,Ice affected,PRAIRIE DOG C AB KEITH SEBELIUS LAKE, KS 06846500: Flow=0.00cfs,Stage=2.77ft,Floodstage=16ft,2016-12-11 00:00,Not ranked,BEAVER C AT CEDAR BLUFFS, KS 06845110: Stage=4.88ft,2016-12-11 00:30:00,Floodstage=17ft,Not ranked,Ice affected,SAPPA C NR LYLE, KS 06827000: Stage=3.41ft,2016-12-11 00:45:00,Not ranked,Ice affected,SF REPUBLICAN R NR CO-KS ST LINE, KS 06824000: Stage=1.03ft,2016-12-10 23:45:00,Not ranked,Ice affected,Rock Creek at Parks, Nebr. 06823500: Stage=1.38ft,2016-12-10 23:45:00,Floodstage=11ft,Not ranked,Ice affected,Buffalo Creek near Haigler, Nebr. 06820475: Stage=3.62ft,Floodstage=20ft,2016-12-11 00:00,Not ranked,MISSOURI R AT LEAVENWORTH, KS 06818300: Stage=9.74ft,Floodstage=22ft,2016-12-08 03:00,Not ranked,MISSOURI R AT ATCHISON, KS 06815000: Stage=4.46ft,2016-12-11 00:45:00,Floodstage=27ft,Not ranked,Ice affected,Big Nemaha River at Falls City, Nebr. 06814000: Not ranked,Ice affected,TURKEY C NR SENECA, KS Go to WaterWatch (offsite) for a larger map with additional options
USGS Home Water Resources Biology Geography Geology Geospatial

Accessibility FOIA Privacy Policies and Notices

Take Pride in America logo USA.gov logo U.S. Department of the Interior | U.S. Geological Survey
Page Contact Information: GS-W-KS_info@usgs.gov
Page Last Modified: 2016-11-01 11:38:35 CDT